Time,TemperatureF,DewpointF,PressureIn,WindDirection,WindDirectionDegrees,WindSpeedMPH,WindSpeedGustMPH,Humidity,HourlyPrecipIn,Conditions,Clouds,dailyrainin,SoftwareType,DateUTC
2014-03-02 00:00:00,69.6,59.4,30.15,NNE,12,0.0,4.0,70,0.00,,,0.00,meteohub,2014-03-02 05:00:00,
2014-03-02 00:01:00,69.6,59.4,30.15,NNE,12,0.0,4.0,70,0.00,,,0.00,meteohub,2014-03-02 05:01:00,
2014-03-02 00:02:00,69.4,59.2,30.15,NE,42,0.0,4.0,70,0.00,,,0.00,meteohub,2014-03-02 05:02:00,
2014-03-02 00:07:00,69.4,59.5,30.15,NE,56,0.0,3.0,71,0.00,,,0.00,meteohub,2014-03-02 05:07:00,
2014-03-02 00:12:00,69.4,59.5,30.15,NE,51,0.0,3.0,71,0.00,,,0.00,meteohub,2014-03-02 05:12:00,
2014-03-02 00:17:00,69.4,59.5,30.15,NE,43,0.0,3.0,71,0.00,,,0.00,meteohub,2014-03-02 05:17:00,
2014-03-02 00:22:00,69.4,59.5,30.15,ENE,76,0.0,3.0,71,0.00,,,0.00,meteohub,2014-03-02 05:22:00,
2014-03-02 00:27:00,69.4,60.1,30.14,ENE,74,0.0,3.0,72,0.00,,,0.00,meteohub,2014-03-02 05:27:00,
2014-03-02 00:32:00,69.4,60.1,30.14,NE,39,1.0,3.0,72,0.00,,,0.00,meteohub,2014-03-02 05:32:00,
2014-03-02 00:37:00,69.4,60.1,30.14,NE,38,0.0,2.0,72,0.00,,,0.00,meteohub,2014-03-02 05:37:00,
2014-03-02 00:42:00,69.4,60.1,30.14,NE,47,0.0,3.0,72,0.00,,,0.00,meteohub,2014-03-02 05:42:00,
2014-03-02 00:47:00,69.4,60.1,30.14,NE,38,0.0,3.0,72,0.00,,,0.00,meteohub,2014-03-02 05:47:00,
2014-03-02 00:52:00,69.3,59.5,30.14,East,98,0.0,3.0,71,0.00,,,0.00,meteohub,2014-03-02 05:52:00,
2014-03-02 00:57:00,69.3,59.5,30.14,East,95,0.0,3.0,71,0.00,,,0.00,meteohub,2014-03-02 05:57:00,
2014-03-02 01:02:00,69.1,59.7,30.14,East,95,0.0,3.0,72,0.00,,,0.00,meteohub,2014-03-02 06:02:00,
2014-03-02 01:07:00,68.7,59.7,30.14,NNE,27,0.0,3.0,73,0.00,,,0.00,meteohub,2014-03-02 06:07:00,
2014-03-02 01:12:00,68.5,59.9,30.13,East,98,0.0,1.0,74,0.00,,,0.00,meteohub,2014-03-02 06:12:00,
2014-03-02 01:17:00,68.5,59.9,30.14,NE,54,0.0,1.0,74,0.00,,,0.00,meteohub,2014-03-02 06:17:00,
2014-03-02 01:22:00,68.5,60.3,30.13,NE,53,0.0,1.0,75,0.00,,,0.00,meteohub,2014-03-02 06:22:00,
2014-03-02 01:27:00,68.7,61.2,30.13,ENE,67,0.0,1.0,77,0.00,,,0.00,meteohub,2014-03-02 06:27:00,
2014-03-02 01:32:00,68.7,61.2,30.13,ESE,107,0.0,1.0,77,0.00,,,0.00,meteohub,2014-03-02 06:32:00,
2014-03-02 01:37:00,69.1,61.9,30.13,ENE,65,0.0,3.0,78,0.00,,,0.00,meteohub,2014-03-02 06:37:00,
2014-03-02 01:42:00,69.1,61.5,30.13,SE,130,0.0,3.0,77,0.00,,,0.00,meteohub,2014-03-02 06:42:00,
2014-03-02 01:47:00,69.1,60.8,30.13,NNE,29,0.0,3.0,75,0.00,,,0.00,meteohub,2014-03-02 06:47:00,
2014-03-02 01:52:00,69.3,61.0,30.13,NE,42,0.0,3.0,75,0.00,,,0.00,meteohub,2014-03-02 06:52:00,
2014-03-02 01:57:00,69.3,60.6,30.12,East,101,0.0,3.0,74,0.00,,,0.00,meteohub,2014-03-02 06:57:00,
2014-03-02 02:02:00,69.3,60.3,30.12,ENE,78,0.0,3.0,73,0.00,,,0.00,meteohub,2014-03-02 07:02:00,
2014-03-02 02:07:00,69.1,60.1,30.12,NE,43,0.0,3.0,73,0.00,,,0.00,meteohub,2014-03-02 07:07:00,
2014-03-02 02:12:00,69.1,59.7,30.12,NE,41,0.0,2.0,72,0.00,,,0.00,meteohub,2014-03-02 07:12:00,
2014-03-02 02:17:00,69.1,59.7,30.12,ESE,111,0.0,5.0,72,0.00,,,0.00,meteohub,2014-03-02 07:17:00,
2014-03-02 02:22:00,69.3,59.9,30.12,ENE,61,0.0,5.0,72,0.00,,,0.00,meteohub,2014-03-02 07:22:00,
2014-03-02 02:27:00,69.3,60.3,30.12,East,80,0.0,5.0,73,0.00,,,0.00,meteohub,2014-03-02 07:27:00,
2014-03-02 02:32:00,69.1,60.4,30.12,ENE,74,0.0,4.0,74,0.00,,,0.00,meteohub,2014-03-02 07:32:00,
2014-03-02 02:37:00,69.1,60.1,30.12,East,88,0.0,3.0,73,0.00,,,0.00,meteohub,2014-03-02 07:37:00,
2014-03-02 02:42:00,68.9,59.9,30.12,ESE,103,0.0,3.0,73,0.00,,,0.00,meteohub,2014-03-02 07:42:00,
2014-03-02 02:47:00,68.7,59.7,30.12,ESE,103,0.0,3.0,73,0.00,,,0.00,meteohub,2014-03-02 07:47:00,
2014-03-02 02:52:00,68.5,59.9,30.11,ESE,103,0.0,1.0,74,0.00,,,0.00,meteohub,2014-03-02 07:52:00,
2014-03-02 02:57:00,68.4,60.1,30.11,ESE,107,0.0,1.0,75,0.00,,,0.00,meteohub,2014-03-02 07:57:00,
2014-03-02 03:02:00,68.4,60.4,30.11,NE,46,0.0,2.0,76,0.00,,,0.00,meteohub,2014-03-02 08:02:00,
2014-03-02 03:07:00,68.4,60.4,30.11,NE,45,0.0,3.0,76,0.00,,,0.00,meteohub,2014-03-02 08:07:00,
2014-03-02 03:12:00,68.4,60.1,30.11,ENE,63,0.0,3.0,75,0.00,,,0.00,meteohub,2014-03-02 08:12:00,
2014-03-02 03:17:00,68.2,60.3,30.11,ENE,63,0.0,3.0,76,0.00,,,0.00,meteohub,2014-03-02 08:17:00,
2014-03-02 03:22:00,68.0,60.1,30.11,ENE,63,0.0,1.0,76,0.00,,,0.00,meteohub,2014-03-02 08:22:00,
2014-03-02 03:27:00,67.8,59.9,30.11,ENE,63,0.0,1.0,76,0.00,,,0.00,meteohub,2014-03-02 08:27:00,
2014-03-02 03:32:00,67.8,59.5,30.11,NE,54,0.0,1.0,75,0.00,,,0.00,meteohub,2014-03-02 08:32:00,
2014-03-02 03:37:00,67.8,59.5,30.11,NE,38,0.0,1.0,75,0.00,,,0.00,meteohub,2014-03-02 08:37:00,
2014-03-02 03:42:00,67.8,59.5,30.11,NE,38,0.0,1.0,75,0.00,,,0.00,meteohub,2014-03-02 08:42:00,
2014-03-02 03:47:00,67.6,59.7,30.11,ENE,63,0.0,1.0,76,0.00,,,0.00,meteohub,2014-03-02 08:47:00,
2014-03-02 03:52:00,67.5,59.2,30.11,NNE,17,0.0,1.0,75,0.00,,,0.00,meteohub,2014-03-02 08:52:00,
2014-03-02 03:57:00,67.5,59.5,30.11,ENE,76,0.0,1.0,76,0.00,,,0.00,meteohub,2014-03-02 08:57:00,
2014-03-02 04:02:00,67.5,59.5,30.12,ENE,67,0.0,1.0,76,0.00,,,0.00,meteohub,2014-03-02 09:02:00,
2014-03-02 04:07:00,67.3,59.5,30.12,NNE,20,0.0,1.0,76,0.00,,,0.00,meteohub,2014-03-02 09:07:00,
2014-03-02 04:12:00,67.3,59.5,30.12,NNE,28,0.0,1.0,76,0.00,,,0.00,meteohub,2014-03-02 09:12:00,
2014-03-02 04:17:00,67.3,59.5,30.12,NNE,27,0.0,1.0,76,0.00,,,0.00,meteohub,2014-03-02 09:17:00,
2014-03-02 04:22:00,66.9,59.5,30.12,NNE,28,0.0,1.0,77,0.00,,,0.00,meteohub,2014-03-02 09:22:00,
2014-03-02 04:27:00,66.9,59.5,30.12,NNE,28,0.0,1.0,77,0.00,,,0.00,meteohub,2014-03-02 09:27:00,
2014-03-02 04:32:00,66.7,59.4,30.12,NNE,28,0.0,0.0,77,0.00,,,0.00,meteohub,2014-03-02 09:32:00,
2014-03-02 04:37:00,66.6,59.5,30.12,NNE,28,0.0,0.0,78,0.00,,,0.00,meteohub,2014-03-02 09:37:00,
2014-03-02 04:42:00,66.4,59.7,30.12,NE,51,0.0,1.0,79,0.00,,,0.00,meteohub,2014-03-02 09:42:00,
2014-03-02 04:47:00,66.2,59.9,30.12,NE,51,0.0,1.0,80,0.00,,,0.00,meteohub,2014-03-02 09:47:00,
2014-03-02 04:52:00,66.4,59.4,30.12,NE,42,0.0,2.0,78,0.00,,,0.00,meteohub,2014-03-02 09:52:00,
2014-03-02 04:57:00,66.6,59.5,30.12,East,80,0.0,2.0,78,0.00,,,0.00,meteohub,2014-03-02 09:57:00,
2014-03-02 05:02:00,66.6,59.5,30.13,East,80,0.0,2.0,78,0.00,,,0.00,meteohub,2014-03-02 10:02:00,
2014-03-02 05:07:00,66.6,59.5,30.13,East,82,0.0,1.0,78,0.00,,,0.00,meteohub,2014-03-02 10:07:00,
2014-03-02 05:12:00,66.6,59.2,30.13,NNE,32,0.0,5.0,77,0.00,,,0.00,meteohub,2014-03-02 10:12:00,
2014-03-02 05:17:00,66.7,59.4,30.13,NE,48,0.0,5.0,77,0.00,,,0.00,meteohub,2014-03-02 10:17:00,
2014-03-02 05:22:00,66.9,59.2,30.13,ENE,67,0.0,5.0,76,0.00,,,0.00,meteohub,2014-03-02 10:22:00,
2014-03-02 05:27:00,67.1,59.7,30.13,NE,37,0.0,3.0,77,0.00,,,0.00,meteohub,2014-03-02 10:27:00,
2014-03-02 05:32:00,67.1,59.7,30.13,ENE,67,0.0,3.0,77,0.00,,,0.00,meteohub,2014-03-02 10:32:00,
2014-03-02 05:37:00,66.9,59.5,30.13,East,84,0.0,1.0,77,0.00,,,0.00,meteohub,2014-03-02 10:37:00,
2014-03-02 05:42:00,66.9,59.5,30.13,SE,132,0.0,1.0,77,0.00,,,0.00,meteohub,2014-03-02 10:42:00,
2014-03-02 05:47:00,66.9,59.5,30.13,East,84,0.0,1.0,77,0.00,,,0.00,meteohub,2014-03-02 10:47:00,
2014-03-02 05:52:00,67.1,59.4,30.13,NE,45,0.0,2.0,76,0.00,,,0.00,meteohub,2014-03-02 10:52:00,
2014-03-02 05:57:00,67.5,59.5,30.13,ESE,107,0.0,3.0,76,0.00,,,0.00,meteohub,2014-03-02 10:57:00,
2014-03-02 06:02:00,67.5,59.2,30.13,East,97,0.0,3.0,75,0.00,,,0.00,meteohub,2014-03-02 11:02:00,
2014-03-02 06:07:00,67.6,59.4,30.13,East,87,0.0,3.0,75,0.00,,,0.00,meteohub,2014-03-02 11:07:00,
2014-03-02 06:12:00,67.6,59.4,30.13,East,99,0.0,2.0,75,0.00,,,0.00,meteohub,2014-03-02 11:12:00,
2014-03-02 06:17:00,67.5,59.2,30.13,East,99,0.0,2.0,75,0.00,,,0.00,meteohub,2014-03-02 11:17:00,
2014-03-02 06:22:00,67.3,59.5,30.13,East,99,0.0,2.0,76,0.00,,,0.00,meteohub,2014-03-02 11:22:00,
2014-03-02 06:27:00,66.9,59.5,30.13,ESE,123,0.0,0.0,77,0.00,,,0.00,meteohub,2014-03-02 11:27:00,
2014-03-02 06:32:00,66.9,59.9,30.13,ESE,123,0.0,1.0,78,0.00,,,0.00,meteohub,2014-03-02 11:32:00,
2014-03-02 06:37:00,66.9,59.9,30.14,NE,36,1.0,2.0,78,0.00,,,0.00,meteohub,2014-03-02 11:37:00,
2014-03-02 06:42:00,67.3,59.9,30.14,ESE,108,0.0,2.0,77,0.00,,,0.00,meteohub,2014-03-02 11:42:00,
2014-03-02 06:47:00,67.5,60.1,30.14,NE,53,0.0,2.0,77,0.00,,,0.00,meteohub,2014-03-02 11:47:00,
2014-03-02 06:52:00,67.5,60.1,30.14,NE,53,0.0,2.0,77,0.00,,,0.00,meteohub,2014-03-02 11:52:00,
2014-03-02 06:57:00,67.3,59.9,30.14,NE,53,0.0,0.0,77,0.00,,,0.00,meteohub,2014-03-02 11:57:00,
2014-03-02 07:02:00,67.3,60.3,30.14,ENE,76,0.0,1.0,78,0.00,,,0.00,meteohub,2014-03-02 12:02:00,
2014-03-02 07:07:00,67.5,60.1,30.14,East,80,0.0,2.0,77,0.00,,,0.00,meteohub,2014-03-02 12:07:00,
2014-03-02 07:12:00,67.5,60.1,30.15,East,80,0.0,2.0,77,0.00,,,0.00,meteohub,2014-03-02 12:12:00,
2014-03-02 07:17:00,67.6,60.3,30.14,SE,124,0.0,2.0,77,0.00,,,0.00,meteohub,2014-03-02 12:17:00,
2014-03-02 07:22:00,68.2,61.0,30.15,NE,48,0.0,2.0,78,0.00,,,0.00,meteohub,2014-03-02 12:22:00,
2014-03-02 07:27:00,68.7,61.2,30.15,ENE,65,1.0,5.0,77,0.00,,,0.00,meteohub,2014-03-02 12:27:00,
2014-03-02 07:32:00,69.4,61.2,30.15,ENE,66,0.0,5.0,75,0.00,,,0.00,meteohub,2014-03-02 12:32:00,
2014-03-02 07:37:00,70.2,61.2,30.15,ENE,69,0.0,5.0,73,0.00,,,0.00,meteohub,2014-03-02 12:37:00,
2014-03-02 07:42:00,70.5,61.0,30.15,ESE,105,0.0,5.0,72,0.00,,,0.00,meteohub,2014-03-02 12:42:00,
2014-03-02 07:47:00,71.1,61.2,30.16,East,91,0.0,4.0,71,0.00,,,0.00,meteohub,2014-03-02 12:47:00,
2014-03-02 07:52:00,71.4,61.5,30.16,East,88,0.0,4.0,71,0.00,,,0.00,meteohub,2014-03-02 12:52:00,
2014-03-02 07:57:00,71.6,61.3,30.16,ENE,63,0.0,3.0,70,0.00,,,0.00,meteohub,2014-03-02 12:57:00,
2014-03-02 08:02:00,72.0,61.2,30.16,ESE,110,1.0,3.0,69,0.00,,,0.00,meteohub,2014-03-02 13:02:00,
2014-03-02 08:07:00,72.7,61.9,30.16,NE,56,0.0,5.0,69,0.00,,,0.00,meteohub,2014-03-02 13:07:00,
2014-03-02 08:12:00,73.2,61.5,30.17,ENE,69,1.0,5.0,67,0.00,,,0.00,meteohub,2014-03-02 13:12:00,
2014-03-02 08:17:00,73.8,62.1,30.17,East,89,0.0,5.0,67,0.00,,,0.00,meteohub,2014-03-02 13:17:00,
2014-03-02 08:22:00,74.1,62.1,30.17,SE,130,2.0,5.0,66,0.00,,,0.00,meteohub,2014-03-02 13:22:00,
2014-03-02 08:27:00,74.5,61.9,30.17,ESE,103,0.0,6.0,65,0.00,,,0.00,meteohub,2014-03-02 13:27:00,
2014-03-02 08:32:00,74.7,61.7,30.17,East,80,2.0,6.0,64,0.00,,,0.00,meteohub,2014-03-02 13:32:00,
2014-03-02 08:37:00,74.8,61.9,30.17,SSE,160,2.0,7.0,64,0.00,,,0.00,meteohub,2014-03-02 13:37:00,
2014-03-02 08:42:00,75.0,62.1,30.17,ESE,105,0.0,7.0,64,0.00,,,0.00,meteohub,2014-03-02 13:42:00,
2014-03-02 08:47:00,75.6,62.1,30.17,NNE,30,6.0,7.0,63,0.00,,,0.00,meteohub,2014-03-02 13:47:00,
2014-03-02 08:52:00,75.6,61.7,30.17,East,90,1.0,7.0,62,0.00,,,0.00,meteohub,2014-03-02 13:52:00,
2014-03-02 08:57:00,75.7,61.9,30.18,SE,125,0.0,7.0,62,0.00,,,0.00,meteohub,2014-03-02 13:57:00,
2014-03-02 09:02:00,76.1,62.1,30.18,ESE,108,0.0,7.0,62,0.00,,,0.00,meteohub,2014-03-02 14:02:00,
2014-03-02 09:07:00,76.5,62.1,30.18,ESE,111,0.0,7.0,61,0.00,,,0.00,meteohub,2014-03-02 14:07:00,
2014-03-02 09:12:00,76.5,62.1,30.18,ESE,118,0.0,5.0,61,0.00,,,0.00,meteohub,2014-03-02 14:12:00,
2014-03-02 09:17:00,76.6,62.2,30.18,ENE,73,2.0,4.0,61,0.00,,,0.00,meteohub,2014-03-02 14:17:00,
2014-03-02 09:22:00,76.5,62.4,30.18,East,85,1.0,8.0,62,0.00,,,0.00,meteohub,2014-03-02 14:22:00,
2014-03-02 09:27:00,76.3,62.8,30.19,ESE,121,1.0,8.0,63,0.00,,,0.00,meteohub,2014-03-02 14:27:00,
2014-03-02 09:32:00,75.9,63.3,30.19,ESE,111,1.0,8.0,65,0.00,,,0.00,meteohub,2014-03-02 14:32:00,
2014-03-02 09:37:00,75.6,63.9,30.19,South,182,1.0,6.0,67,0.00,,,0.00,meteohub,2014-03-02 14:37:00,
2014-03-02 09:42:00,75.7,64.4,30.19,NW,323,1.0,6.0,68,0.00,,,0.00,meteohub,2014-03-02 14:42:00,
2014-03-02 09:47:00,75.7,64.0,30.19,NE,36,1.0,6.0,67,0.00,,,0.00,meteohub,2014-03-02 14:47:00,
2014-03-02 09:52:00,75.6,63.9,30.19,SE,135,0.0,6.0,67,0.00,,,0.00,meteohub,2014-03-02 14:52:00,
2014-03-02 09:57:00,76.1,64.4,30.19,ESE,118,1.0,7.0,67,0.00,,,0.00,meteohub,2014-03-02 14:57:00,
2014-03-02 10:02:00,77.0,64.4,30.19,SE,127,3.0,7.0,65,0.00,,,0.00,meteohub,2014-03-02 15:02:00,
2014-03-02 10:07:00,77.4,63.9,30.19,SE,136,1.0,7.0,63,0.00,,,0.00,meteohub,2014-03-02 15:07:00,
2014-03-02 10:12:00,77.0,63.5,30.19,SSW,205,1.0,7.0,63,0.00,,,0.00,meteohub,2014-03-02 15:12:00,
2014-03-02 10:17:00,76.8,62.8,30.19,ENE,75,1.0,7.0,62,0.00,,,0.00,meteohub,2014-03-02 15:17:00,
2014-03-02 10:22:00,76.6,62.6,30.19,SSW,205,0.0,7.0,62,0.00,,,0.00,meteohub,2014-03-02 15:22:00,
2014-03-02 10:23:00,76.6,62.6,30.19,North,5,2.0,7.0,62,0.00,,,0.00,meteohub,2014-03-02 15:23:00,
2014-03-02 10:28:00,77.2,62.6,30.19,ESE,117,0.0,7.0,61,0.00,,,0.00,meteohub,2014-03-02 15:28:00,
2014-03-02 10:33:00,77.2,62.6,30.19,SSE,157,4.0,6.0,61,0.00,,,0.00,meteohub,2014-03-02 15:33:00,
2014-03-02 10:38:00,77.4,63.3,30.19,SSE,161,5.0,7.0,62,0.00,,,0.00,meteohub,2014-03-02 15:38:00,
2014-03-02 10:43:00,77.5,63.0,30.19,SSE,148,0.0,7.0,61,0.00,,,0.00,meteohub,2014-03-02 15:43:00,
2014-03-02 10:48:00,77.9,63.3,30.19,East,83,2.0,7.0,61,0.00,,,0.00,meteohub,2014-03-02 15:48:00,
2014-03-02 10:53:00,77.9,63.0,30.20,East,84,0.0,7.0,60,0.00,,,0.00,meteohub,2014-03-02 15:53:00,
2014-03-02 10:58:00,78.1,63.1,30.19,East,82,2.0,9.0,60,0.00,,,0.00,meteohub,2014-03-02 15:58:00,
2014-03-02 11:03:00,78.3,63.3,30.19,SSE,158,3.0,9.0,60,0.00,,,0.00,meteohub,2014-03-02 16:03:00,
2014-03-02 11:08:00,78.1,62.6,30.19,SE,130,1.0,9.0,59,0.00,,,0.00,meteohub,2014-03-02 16:08:00,
2014-03-02 11:13:00,78.3,63.3,30.19,ESE,103,4.0,8.0,60,0.00,,,0.00,meteohub,2014-03-02 16:13:00,
2014-03-02 11:18:00,78.1,63.1,30.19,ESE,115,2.0,8.0,60,0.00,,,0.00,meteohub,2014-03-02 16:18:00,
2014-03-02 11:23:00,78.3,63.3,30.19,SSE,153,1.0,8.0,60,0.00,,,0.00,meteohub,2014-03-02 16:23:00,
2014-03-02 11:28:00,78.4,62.4,30.19,East,94,0.0,8.0,58,0.00,,,0.00,meteohub,2014-03-02 16:28:00,
2014-03-02 11:33:00,78.4,62.4,30.19,SSE,154,1.0,7.0,58,0.00,,,0.00,meteohub,2014-03-02 16:33:00,
2014-03-02 11:38:00,78.4,61.5,30.19,ESE,105,0.0,6.0,56,0.00,,,0.00,meteohub,2014-03-02 16:38:00,
2014-03-02 11:43:00,78.4,61.5,30.18,NE,46,4.0,6.0,56,0.00,,,0.00,meteohub,2014-03-02 16:43:00,
2014-03-02 11:48:00,78.6,61.5,30.18,South,188,1.0,6.0,56,0.00,,,0.00,meteohub,2014-03-02 16:48:00,
2014-03-02 11:53:00,78.6,62.1,30.18,ENE,73,0.0,6.0,57,0.00,,,0.00,meteohub,2014-03-02 16:53:00,
2014-03-02 11:58:00,78.8,62.8,30.18,ESE,109,1.0,5.0,58,0.00,,,0.00,meteohub,2014-03-02 16:58:00,
2014-03-02 12:03:00,79.2,62.1,30.18,East,84,5.0,7.0,56,0.00,,,0.00,meteohub,2014-03-02 17:03:00,
2014-03-02 12:08:00,79.0,61.9,30.17,ENE,69,2.0,7.0,56,0.00,,,0.00,meteohub,2014-03-02 17:08:00,
2014-03-02 12:13:00,79.2,62.1,30.17,SSE,163,1.0,7.0,56,0.00,,,0.00,meteohub,2014-03-02 17:13:00,
2014-03-02 12:18:00,79.2,61.5,30.17,SSW,192,2.0,7.0,55,0.00,,,0.00,meteohub,2014-03-02 17:18:00,
2014-03-02 12:23:00,79.2,62.6,30.17,NNW,328,2.0,7.0,57,0.00,,,0.00,meteohub,2014-03-02 17:23:00,
2014-03-02 12:28:00,79.3,62.2,30.17,ESE,115,2.0,6.0,56,0.00,,,0.00,meteohub,2014-03-02 17:28:00,
2014-03-02 12:33:00,79.5,61.9,30.16,East,97,5.0,6.0,55,0.00,,,0.00,meteohub,2014-03-02 17:33:00,
2014-03-02 12:38:00,79.3,61.7,30.16,SE,140,1.0,6.0,55,0.00,,,0.00,meteohub,2014-03-02 17:38:00,
2014-03-02 12:43:00,79.5,62.4,30.16,East,99,8.0,8.0,56,0.00,,,0.00,meteohub,2014-03-02 17:43:00,
2014-03-02 12:48:00,79.3,62.8,30.16,ESE,119,1.0,8.0,57,0.00,,,0.00,meteohub,2014-03-02 17:48:00,
2014-03-02 12:53:00,79.7,62.6,30.15,SSW,193,1.0,8.0,56,0.00,,,0.00,meteohub,2014-03-02 17:53:00,
2014-03-02 12:58:00,79.9,62.8,30.15,SSE,157,0.0,8.0,56,0.00,,,0.00,meteohub,2014-03-02 17:58:00,
2014-03-02 13:03:00,79.9,62.8,30.15,NE,44,0.0,7.0,56,0.00,,,0.00,meteohub,2014-03-02 18:03:00,
2014-03-02 13:08:00,79.7,63.1,30.14,SE,136,2.0,7.0,57,0.00,,,0.00,meteohub,2014-03-02 18:08:00,
2014-03-02 13:13:00,79.5,63.0,30.14,East,81,3.0,5.0,57,0.00,,,0.00,meteohub,2014-03-02 18:13:00,
2014-03-02 13:18:00,79.5,63.5,30.14,SE,132,0.0,6.0,58,0.00,,,0.00,meteohub,2014-03-02 18:18:00,
2014-03-02 13:23:00,80.1,63.5,30.14,ESE,117,3.0,6.0,57,0.00,,,0.00,meteohub,2014-03-02 18:23:00,
2014-03-02 13:28:00,79.9,63.3,30.13,SSE,153,6.0,6.0,57,0.00,,,0.00,meteohub,2014-03-02 18:28:00,
2014-03-02 13:33:00,79.3,63.7,30.13,SSE,161,1.0,7.0,59,0.00,,,0.00,meteohub,2014-03-02 18:33:00,
2014-03-02 13:38:00,79.5,63.5,30.13,NNE,18,2.0,7.0,58,0.00,,,0.00,meteohub,2014-03-02 18:38:00,
2014-03-02 13:43:00,79.9,63.3,30.13,SE,135,2.0,7.0,57,0.00,,,0.00,meteohub,2014-03-02 18:43:00,
2014-03-02 13:48:00,80.1,63.5,30.13,SE,144,3.0,7.0,57,0.00,,,0.00,meteohub,2014-03-02 18:48:00,
2014-03-02 13:53:00,80.4,63.9,30.13,SE,142,1.0,7.0,57,0.00,,,0.00,meteohub,2014-03-02 18:53:00,
2014-03-02 13:58:00,80.2,63.7,30.12,ESE,106,0.0,6.0,57,0.00,,,0.00,meteohub,2014-03-02 18:58:00,
2014-03-02 14:03:00,80.2,64.0,30.12,ESE,109,0.0,6.0,58,0.00,,,0.00,meteohub,2014-03-02 19:03:00,
2014-03-02 14:08:00,80.4,63.9,30.12,North,9,1.0,6.0,57,0.00,,,0.00,meteohub,2014-03-02 19:08:00,
2014-03-02 14:13:00,80.4,64.2,30.11,SSW,192,0.0,6.0,58,0.00,,,0.00,meteohub,2014-03-02 19:13:00,
2014-03-02 14:18:00,80.2,63.7,30.11,SSE,151,0.0,6.0,57,0.00,,,0.00,meteohub,2014-03-02 19:18:00,
2014-03-02 14:23:00,79.9,63.9,30.11,ENE,76,0.0,6.0,58,0.00,,,0.00,meteohub,2014-03-02 19:23:00,
2014-03-02 14:28:00,79.3,63.7,30.11,SE,144,2.0,6.0,59,0.00,,,0.00,meteohub,2014-03-02 19:28:00,
2014-03-02 14:33:00,79.9,64.2,30.10,SE,142,3.0,6.0,59,0.00,,,0.00,meteohub,2014-03-02 19:33:00,
2014-03-02 14:38:00,79.9,64.8,30.10,SSE,150,3.0,5.0,60,0.00,,,0.00,meteohub,2014-03-02 19:38:00,
2014-03-02 14:43:00,79.3,64.2,30.10,SSE,148,1.0,5.0,60,0.00,,,0.00,meteohub,2014-03-02 19:43:00,
2014-03-02 14:48:00,79.5,63.9,30.10,SSE,150,1.0,6.0,59,0.00,,,0.00,meteohub,2014-03-02 19:48:00,
2014-03-02 14:53:00,79.7,63.7,30.09,ESE,121,1.0,6.0,58,0.00,,,0.00,meteohub,2014-03-02 19:53:00,
2014-03-02 14:58:00,79.9,63.3,30.09,SSE,150,0.0,7.0,57,0.00,,,0.00,meteohub,2014-03-02 19:58:00,
2014-03-02 15:03:00,80.2,63.7,30.09,ENE,61,0.0,7.0,57,0.00,,,0.00,meteohub,2014-03-02 20:03:00,
2014-03-02 15:08:00,80.4,62.2,30.09,SE,139,1.0,7.0,54,0.00,,,0.00,meteohub,2014-03-02 20:08:00,
2014-03-02 15:13:00,80.1,62.4,30.09,SE,138,0.0,8.0,55,0.00,,,0.00,meteohub,2014-03-02 20:13:00,
2014-03-02 15:18:00,79.9,62.2,30.09,ESE,109,0.0,8.0,55,0.00,,,0.00,meteohub,2014-03-02 20:18:00,
2014-03-02 15:23:00,80.1,61.9,30.09,South,172,2.0,8.0,54,0.00,,,0.00,meteohub,2014-03-02 20:23:00,
2014-03-02 15:28:00,80.1,62.4,30.09,ESE,117,0.0,6.0,55,0.00,,,0.00,meteohub,2014-03-02 20:28:00,
2014-03-02 15:33:00,80.1,61.9,30.09,ESE,119,2.0,5.0,54,0.00,,,0.00,meteohub,2014-03-02 20:33:00,
2014-03-02 15:38:00,79.9,61.7,30.09,SE,132,1.0,4.0,54,0.00,,,0.00,meteohub,2014-03-02 20:38:00,
2014-03-02 15:43:00,79.5,61.3,30.09,SE,128,0.0,7.0,54,0.00,,,0.00,meteohub,2014-03-02 20:43:00,
2014-03-02 15:48:00,79.3,61.2,30.09,SE,138,1.0,7.0,54,0.00,,,0.00,meteohub,2014-03-02 20:48:00,
2014-03-02 15:53:00,79.3,62.2,30.09,NE,38,3.0,7.0,56,0.00,,,0.00,meteohub,2014-03-02 20:53:00,
2014-03-02 15:58:00,79.3,61.7,30.09,SE,133,1.0,4.0,55,0.00,,,0.00,meteohub,2014-03-02 20:58:00,
2014-03-02 16:03:00,79.3,61.2,30.09,SE,139,0.0,5.0,54,0.00,,,0.00,meteohub,2014-03-02 21:03:00,
2014-03-02 16:08:00,79.3,60.8,30.09,NE,56,0.0,5.0,53,0.00,,,0.00,meteohub,2014-03-02 21:08:00,
2014-03-02 16:13:00,79.5,60.8,30.09,SSE,151,1.0,5.0,53,0.00,,,0.00,meteohub,2014-03-02 21:13:00,
2014-03-02 16:18:00,79.7,61.5,30.09,South,177,0.0,4.0,54,0.00,,,0.00,meteohub,2014-03-02 21:18:00,
2014-03-02 16:23:00,79.3,61.7,30.09,SE,146,0.0,6.0,55,0.00,,,0.00,meteohub,2014-03-02 21:23:00,
2014-03-02 16:28:00,79.2,62.1,30.09,SE,138,0.0,6.0,56,0.00,,,0.00,meteohub,2014-03-02 21:28:00,
2014-03-02 16:33:00,79.0,61.5,30.09,SE,134,2.0,6.0,55,0.00,,,0.00,meteohub,2014-03-02 21:33:00,
2014-03-02 16:38:00,78.6,61.2,30.09,SSE,155,1.0,4.0,55,0.00,,,0.00,meteohub,2014-03-02 21:38:00,
2014-03-02 16:43:00,78.1,61.2,30.09,SE,133,0.0,4.0,56,0.00,,,0.00,meteohub,2014-03-02 21:43:00,
2014-03-02 16:48:00,77.9,61.9,30.09,East,90,0.0,6.0,58,0.00,,,0.00,meteohub,2014-03-02 21:48:00,
2014-03-02 16:53:00,77.5,61.2,30.09,SSE,168,0.0,6.0,57,0.00,,,0.00,meteohub,2014-03-02 21:53:00,
2014-03-02 16:58:00,77.2,61.7,30.09,SSE,150,1.0,6.0,59,0.00,,,0.00,meteohub,2014-03-02 21:58:00,
2014-03-02 17:03:00,77.0,62.1,30.09,SSE,150,0.0,6.0,60,0.00,,,0.00,meteohub,2014-03-02 22:03:00,
2014-03-02 17:08:00,77.2,62.6,30.09,SE,130,1.0,5.0,61,0.00,,,0.00,meteohub,2014-03-02 22:08:00,
2014-03-02 17:13:00,77.0,62.1,30.09,ESE,111,3.0,8.0,60,0.00,,,0.00,meteohub,2014-03-02 22:13:00,
2014-03-02 17:18:00,76.8,62.4,30.09,ENE,78,0.0,8.0,61,0.00,,,0.00,meteohub,2014-03-02 22:18:00,
2014-03-02 17:23:00,76.6,62.2,30.09,SE,140,0.0,8.0,61,0.00,,,0.00,meteohub,2014-03-02 22:23:00,
2014-03-02 17:28:00,76.3,61.9,30.09,WNW,284,1.0,6.0,61,0.00,,,0.00,meteohub,2014-03-02 22:28:00,
2014-03-02 17:33:00,76.1,62.1,30.09,ENE,63,1.0,6.0,62,0.00,,,0.00,meteohub,2014-03-02 22:33:00,
2014-03-02 17:38:00,75.9,61.9,30.09,SE,142,0.0,5.0,62,0.00,,,0.00,meteohub,2014-03-02 22:38:00,
2014-03-02 17:43:00,75.9,61.9,30.09,SE,138,2.0,5.0,62,0.00,,,0.00,meteohub,2014-03-02 22:43:00,
2014-03-02 17:48:00,75.7,62.8,30.09,ESE,118,2.0,3.0,64,0.00,,,0.00,meteohub,2014-03-02 22:48:00,
2014-03-02 17:53:00,75.6,63.3,30.09,East,91,0.0,6.0,66,0.00,,,0.00,meteohub,2014-03-02 22:53:00,
2014-03-02 17:58:00,75.2,62.6,30.09,SSW,211,3.0,6.0,65,0.00,,,0.00,meteohub,2014-03-02 22:58:00,
2014-03-02 18:03:00,75.0,61.5,30.09,ESE,109,0.0,7.0,63,0.00,,,0.00,meteohub,2014-03-02 23:03:00,
2014-03-02 18:08:00,74.8,61.9,30.09,South,183,3.0,7.0,64,0.00,,,0.00,meteohub,2014-03-02 23:08:00,
2014-03-02 18:13:00,74.8,62.2,30.09,SE,134,1.0,7.0,65,0.00,,,0.00,meteohub,2014-03-02 23:13:00,
2014-03-02 18:18:00,74.7,63.3,30.09,ESE,117,0.0,6.0,68,0.00,,,0.00,meteohub,2014-03-02 23:18:00,
2014-03-02 18:23:00,74.5,63.1,30.09,SE,140,0.0,5.0,68,0.00,,,0.00,meteohub,2014-03-02 23:23:00,
2014-03-02 18:28:00,74.1,63.0,30.09,SE,138,0.0,5.0,68,0.00,,,0.00,meteohub,2014-03-02 23:28:00,
2014-03-02 18:33:00,73.9,62.8,30.09,SSW,202,4.0,5.0,68,0.00,,,0.00,meteohub,2014-03-02 23:33:00,
2014-03-02 18:39:00,73.6,62.8,30.09,SE,126,0.0,5.0,69,0.00,,,0.00,meteohub,2014-03-02 23:39:00,
2014-03-02 18:44:00,73.4,62.6,30.09,ESE,109,0.0,5.0,69,0.00,,,0.00,meteohub,2014-03-02 23:44:00,
2014-03-02 18:49:00,73.2,62.4,30.09,South,178,0.0,5.0,69,0.00,,,0.00,meteohub,2014-03-02 23:49:00,
2014-03-02 18:54:00,73.0,62.6,30.09,ESE,117,0.0,7.0,70,0.00,,,0.00,meteohub,2014-03-02 23:54:00,
2014-03-02 18:59:00,73.0,62.6,30.09,SE,135,0.0,7.0,70,0.00,,,0.00,meteohub,2014-03-02 23:59:00,
2014-03-02 19:04:00,72.9,63.0,30.09,SE,141,0.0,7.0,71,0.00,,,0.00,meteohub,2014-03-03 00:04:00,
2014-03-02 19:09:00,72.9,62.4,30.10,SE,134,0.0,5.0,70,0.00,,,0.00,meteohub,2014-03-03 00:09:00,
2014-03-02 19:14:00,72.7,62.8,30.10,SE,126,1.0,5.0,71,0.00,,,0.00,meteohub,2014-03-03 00:14:00,
2014-03-02 19:19:00,72.5,62.6,30.09,ESE,119,0.0,5.0,71,0.00,,,0.00,meteohub,2014-03-03 00:19:00,
2014-03-02 19:24:00,72.5,62.2,30.09,South,189,0.0,4.0,70,0.00,,,0.00,meteohub,2014-03-03 00:24:00,
2014-03-02 19:29:00,72.5,62.6,30.10,SSE,161,0.0,4.0,71,0.00,,,0.00,meteohub,2014-03-03 00:29:00,
2014-03-02 19:34:00,72.5,62.6,30.10,SSE,161,0.0,4.0,71,0.00,,,0.00,meteohub,2014-03-03 00:34:00,
2014-03-02 19:39:00,72.3,62.8,30.10,SE,140,0.0,4.0,72,0.00,,,0.00,meteohub,2014-03-03 00:39:00,
2014-03-02 19:44:00,72.3,62.8,30.09,SE,140,0.0,3.0,72,0.00,,,0.00,meteohub,2014-03-03 00:44:00,
2014-03-02 19:49:00,72.3,63.1,30.09,SE,142,0.0,3.0,73,0.00,,,0.00,meteohub,2014-03-03 00:49:00,
2014-03-02 19:54:00,72.3,63.1,30.09,ESE,115,1.0,3.0,73,0.00,,,0.00,meteohub,2014-03-03 00:54:00,
2014-03-02 19:59:00,72.5,63.0,30.10,South,185,2.0,3.0,72,0.00,,,0.00,meteohub,2014-03-03 00:59:00,
2014-03-02 20:04:00,72.5,63.0,30.10,SW,224,0.0,3.0,72,0.00,,,0.00,meteohub,2014-03-03 01:04:00,
2014-03-02 20:09:00,72.5,63.0,30.10,SSE,157,1.0,3.0,72,0.00,,,0.00,meteohub,2014-03-03 01:09:00,
2014-03-02 20:14:00,72.7,62.8,30.10,SE,126,0.0,5.0,71,0.00,,,0.00,meteohub,2014-03-03 01:14:00,
2014-03-02 20:19:00,72.7,62.8,30.10,ESE,113,0.0,5.0,71,0.00,,,0.00,meteohub,2014-03-03 01:19:00,
2014-03-02 20:24:00,72.5,62.6,30.10,South,171,0.0,5.0,71,0.00,,,0.00,meteohub,2014-03-03 01:24:00,
2014-03-02 20:29:00,72.7,62.8,30.10,SE,144,0.0,2.0,71,0.00,,,0.00,meteohub,2014-03-03 01:29:00,
2014-03-02 20:34:00,72.7,63.1,30.10,SSE,148,0.0,2.0,72,0.00,,,0.00,meteohub,2014-03-03 01:34:00,
2014-03-02 20:39:00,72.5,63.0,30.10,SSE,147,0.0,3.0,72,0.00,,,0.00,meteohub,2014-03-03 01:39:00,
2014-03-02 20:44:00,72.3,63.1,30.10,SE,146,0.0,3.0,73,0.00,,,0.00,meteohub,2014-03-03 01:44:00,
2014-03-02 20:49:00,72.1,63.3,30.11,SSE,149,0.0,3.0,74,0.00,,,0.00,meteohub,2014-03-03 01:49:00,
2014-03-02 20:54:00,72.0,63.1,30.11,SSE,147,0.0,1.0,74,0.00,,,0.00,meteohub,2014-03-03 01:54:00,
2014-03-02 20:59:00,71.8,63.0,30.11,SSE,165,0.0,2.0,74,0.00,,,0.00,meteohub,2014-03-03 01:59:00,
2014-03-02 21:04:00,71.8,63.0,30.11,SE,132,0.0,2.0,74,0.00,,,0.00,meteohub,2014-03-03 02:04:00,
2014-03-02 21:09:00,71.6,63.0,30.11,ESE,110,0.0,2.0,74,0.00,,,0.00,meteohub,2014-03-03 02:09:00,
2014-03-02 21:14:00,71.4,62.8,30.10,SW,220,0.0,2.0,74,0.00,,,0.00,meteohub,2014-03-03 02:14:00,
2014-03-02 21:19:00,71.2,62.1,30.10,SW,220,0.0,2.0,73,0.00,,,0.00,meteohub,2014-03-03 02:19:00,
2014-03-02 21:24:00,71.2,62.1,30.10,SW,220,0.0,2.0,73,0.00,,,0.00,meteohub,2014-03-03 02:24:00,
2014-03-02 21:29:00,71.1,61.9,30.10,SW,220,0.0,2.0,73,0.00,,,0.00,meteohub,2014-03-03 02:29:00,
2014-03-02 21:34:00,70.7,62.1,30.10,SW,220,0.0,0.0,74,0.00,,,0.00,meteohub,2014-03-03 02:34:00,
2014-03-02 21:39:00,70.5,61.9,30.10,SSW,213,0.0,0.0,74,0.00,,,0.00,meteohub,2014-03-03 02:39:00,
2014-03-02 21:44:00,70.5,61.9,30.10,SSW,202,0.0,1.0,74,0.00,,,0.00,meteohub,2014-03-03 02:44:00,
2014-03-02 21:49:00,70.5,61.5,30.10,SSE,151,0.0,1.0,73,0.00,,,0.00,meteohub,2014-03-03 02:49:00,
2014-03-02 21:54:00,70.3,61.3,30.10,SSE,151,0.0,1.0,73,0.00,,,0.00,meteohub,2014-03-03 02:54:00,
2014-03-02 21:59:00,70.3,61.3,30.10,SSE,151,0.0,1.0,73,0.00,,,0.00,meteohub,2014-03-03 02:59:00,
2014-03-02 22:04:00,70.2,61.5,30.10,SSE,151,0.0,1.0,74,0.00,,,0.00,meteohub,2014-03-03 03:04:00,
2014-03-02 22:09:00,69.8,60.8,30.10,SSE,151,0.0,0.0,73,0.00,,,0.00,meteohub,2014-03-03 03:09:00,
2014-03-02 22:14:00,69.6,61.0,30.10,ESE,111,0.0,0.0,74,0.00,,,0.00,meteohub,2014-03-03 03:14:00,
2014-03-02 22:19:00,69.6,61.0,30.10,South,181,2.0,0.0,74,0.00,,,0.00,meteohub,2014-03-03 03:19:00,
2014-03-02 22:24:00,69.6,61.0,30.10,SE,136,0.0,2.0,74,0.00,,,0.00,meteohub,2014-03-03 03:24:00,
2014-03-02 22:29:00,70.0,61.3,30.10,South,169,0.0,3.0,74,0.00,,,0.00,meteohub,2014-03-03 03:29:00,
2014-03-02 22:34:00,70.2,61.2,30.10,South,177,0.0,3.0,73,0.00,,,0.00,meteohub,2014-03-03 03:34:00,
2014-03-02 22:39:00,70.2,61.2,30.10,South,169,0.0,3.0,73,0.00,,,0.00,meteohub,2014-03-03 03:39:00,
2014-03-02 22:44:00,70.2,61.2,30.10,South,169,0.0,2.0,73,0.00,,,0.00,meteohub,2014-03-03 03:44:00,
2014-03-02 22:49:00,70.2,61.2,30.10,South,169,0.0,2.0,73,0.00,,,0.00,meteohub,2014-03-03 03:49:00,
2014-03-02 22:54:00,70.0,61.0,30.09,South,169,0.0,1.0,73,0.00,,,0.00,meteohub,2014-03-03 03:54:00,
2014-03-02 22:59:00,69.6,60.6,30.09,SSE,168,0.0,1.0,73,0.00,,,0.00,meteohub,2014-03-03 03:59:00,
2014-03-02 23:04:00,69.4,60.4,30.09,SSE,168,0.0,0.0,73,0.00,,,0.00,meteohub,2014-03-03 04:04:00,
2014-03-02 23:09:00,69.4,60.8,30.09,SSE,168,0.0,0.0,74,0.00,,,0.00,meteohub,2014-03-03 04:09:00,
2014-03-02 23:14:00,69.3,61.0,30.09,SSE,163,0.0,0.0,75,0.00,,,0.00,meteohub,2014-03-03 04:14:00,
2014-03-02 23:19:00,69.4,61.2,30.09,ESE,113,0.0,1.0,75,0.00,,,0.00,meteohub,2014-03-03 04:19:00,
2014-03-02 23:24:00,69.4,61.2,30.09,ESE,113,0.0,1.0,75,0.00,,,0.00,meteohub,2014-03-03 04:24:00,
2014-03-02 23:29:00,69.4,61.2,30.09,South,169,0.0,1.0,75,0.00,,,0.00,meteohub,2014-03-03 04:29:00,
2014-03-02 23:34:00,69.6,61.0,30.09,ESE,109,0.0,2.0,74,0.00,,,0.00,meteohub,2014-03-03 04:34:00,
2014-03-02 23:39:00,69.6,61.0,30.09,SE,139,0.0,2.0,74,0.00,,,0.00,meteohub,2014-03-03 04:39:00,
2014-03-02 23:44:00,70.0,61.0,30.09,SSE,148,0.0,2.0,73,0.00,,,0.00,meteohub,2014-03-03 04:44:00,
2014-03-02 23:49:00,70.2,61.2,30.09,SE,131,0.0,4.0,73,0.00,,,0.00,meteohub,2014-03-03 04:49:00,
2014-03-02 23:54:00,70.2,61.2,30.09,East,95,0.0,4.0,73,0.00,,,0.00,meteohub,2014-03-03 04:54:00,
2014-03-02 23:59:00,70.2,61.2,30.08,SSE,158,0.0,4.0,73,0.00,,,0.00,meteohub,2014-03-03 04:59:00,